GFSCGP_500_rhum_000.txt.gz
RH
92 87 84 70 65 43 31 67 92 51 20 25 24 24 25 22 20 20 19 21 23 22 35 46 47 56 59 49 62 73 85 96 71 57 53 43 43 64 79 74 67 61 61 61
42 69 73 66 68 21 27 48 56 39 31 24 47 31 16 13 11 11 14 31 58 55 50 40 68 74 80 71 86 72 54 57 50 49 50 54 54 60 60 66 68 62 49 30
26 44 46 50 51 72 77 45 50 62 50 32 32 20 16 16 16 16 21 33 44 44 75 81 87 91 77 80 70 64 63 68 74 61 58 62 64 66 65 60 46 31 29 31
33 57 50 65 89 75 78 73 60 79 80 68 59 38 20 16 16 23 33 42 47 82 72 98 79 81 62 45 46 79 96 71 62 55 60 67 68 58 44 38 34 34 38 47
26 24 40 56 50 44 58 41 58 78 68 73 62 38 18 14 23 31 40 45 53 54 79 78 100 76 58 73 100 98 62 60 61 64 72 66 46 45 47 49 56 63 58 43
31 35 49 38 33 22 23 26 35 50 55 40 17 17 16 22 30 30 48 65 73 78 55 65 68 66 96 99 79 58 85 84 70 64 49 48 52 53 52 47 41 39 39 35
28 27 21 21 21 20 20 20 21 23 23 21 21 19 16 18 31 57 63 65 68 46 43 47 65 57 63 57 56 72 69 64 48 38 38 44 50 49 43 38 40 40 34 30
34 29 21 18 20 23 25 27 28 25 20 18 20 24 30 40 38 36 37 35 32 29 32 39 47 42 41 46 64 62 51 42 36 40 46 49 46 44 46 45 41 36 33 34
10 12 14 14 16 19 19 22 23 25 25 27 25 19 19 20 22 22 21 24 22 21 22 27 31 33 36 36 39 46 43 41 49 50 45 50 57 57 52 47 40 39 40 34
13 17 26 26 25 24 24 27 25 20 18 17 18 18 18 18 18 18 19 20 20 20 20 20 21 22 22 25 30 33 36 45 56 56 58 63 62 58 48 46 47 46 39 38
17 27 26 27 27 27 22 16 18 20 19 20 20 20 19 17 18 19 20 22 25 27 27 25 23 22 23 25 26 33 48 57 61 61 64 65 63 55 53 53 50 46 43 38
28 26 27 30 28 17 15 19 20 16 16 16 16 17 15 14 14 15 19 25 28 27 27 27 27 26 27 30 36 44 52 58 62 70 73 66 59 58 57 54 52 47 39 40
23 25 28 26 21 15 19 17 16 16 17 18 17 15 15 15 17 20 31 33 32 32 31 30 30 30 32 37 41 43 46 63 82 79 69 65 65 62 60 59 49 42 41 48
26 26 28 29 24 23 23 19 17 16 18 19 19 17 16 16 21 24 30 38 40 39 35 33 33 34 37 41 40 45 56 70 80 76 72 70 68 68 64 52 42 43 49 46
26 26 26 25 27 26 22 20 20 18 20 20 21 20 18 16 18 22 32 36 38 40 37 35 36 38 43 43 45 42 69 82 82 80 75 77 75 65 53 42 45 50 46 31
28 28 28 26 26 25 23 21 22 21 22 22 21 22 21 20 18 20 22 27 32 40 42 40 39 42 45 45 45 65 81 88 86 85 84 79 58 49 44 48 52 50 32 25
30 28 28 28 28 25 20 20 20 20 21 22 21 22 22 22 22 21 22 23 32 44 47 45 42 45 48 54 57 81 90 89 92 92 74 52 47 48 48 50 54 37 27 15
26 30 29 26 26 22 18 19 18 19 20 23 22 23 22 22 23 22 21 22 38 48 50 47 47 53 61 57 74 84 87 94 93 71 57 55 54 56 57 59 42 29 16 13
22 28 32 34 30 24 24 21 18 18 22 24 24 24 22 24 23 24 23 25 43 50 50 51 55 58 51 68 85 92 96 88 74 68 62 59 59 63 60 41 29 16 13 14
20 19 25 31 31 25 25 27 28 27 20 26 24 25 25 24 23 25 28 29 45 50 55 58 44 42 67 80 84 89 87 81 78 72 72 70 70 62 40 29 16 14 15 14
31 31 25 22 19 14 24 27 29 26 26 22 24 24 24 25 26 31 31 36 52 54 50 39 37 59 85 93 93 95 94 88 85 84 80 74 66 39 28 16 14 15 17 14
16 22 31 35 30 24 30 29 29 28 27 27 27 27 28 28 38 34 37 53 50 45 44 49 70 94 100 97 96 97 89 88 87 82 80 64 37 27 16 14 14 18 17 23
16 29 30 37 40 44 40 42 44 44 41 38 35 35 38 53 43 44 45 43 44 51 66 83 100 100 100 100 99 93 95 91 84 82 54 30 26 15 14 15 18 21 23 35
14 19 20 24 33 38 37 32 36 36 37 39 44 53 51 47 50 46 39 44 66 78 90 100 100 100 100 100 100 98 93 87 82 42 25 22 14 14 15 18 25 27 33 37
12 17 20 16 22 25 35 44 46 43 44 50 54 51 54 54 46 44 67 78 96 100 100 100 100 100 100 100 100 95 89 73 30 23 20 14 16 17 18 26 34 37 45 63
21 32 24 19 28 27 32 40 47 50 61 57 57 62 62 47 48 75 79 98 100 100 100 100 100 100 100 100 98 91 61 26 20 18 13 17 20 18 23 34 42 48 47 46

GFSCGP_500_rhum_006.txt.gz
RH
95 99 96 98 97 89 77 58 63 44 34 28 47 52 59 72 54 43 32 25 25 22 26 34 50 54 43 30 33 64 73 72 63 49 42 34 40 74 69 52 50 47 42 38
92 97 90 91 79 70 62 50 86 63 39 50 58 53 49 44 31 29 32 33 29 23 23 30 33 38 49 71 72 77 96 73 42 54 64 72 81 50 37 26 27 32 34 35
98 83 86 92 76 79 52 84 98 99 59 43 57 37 22 22 29 29 27 28 26 25 34 49 70 75 79 67 70 88 73 26 23 28 34 49 27 24 40 57 51 47 50 57
88 81 84 78 72 74 81 73 95 91 91 80 62 91 27 32 30 28 28 27 26 35 48 55 56 36 31 28 27 29 25 21 23 26 21 23 29 37 53 70 69 67 60 59
87 45 44 61 74 65 67 58 64 57 71 84 65 44 63 26 31 28 22 26 32 45 66 55 44 34 23 21 20 22 23 24 21 20 20 22 27 30 33 39 45 49 56 63
85 75 64 50 64 75 75 33 60 86 77 61 31 30 80 20 24 18 18 24 44 57 53 31 23 19 19 20 20 20 20 21 20 20 21 23 25 27 30 30 33 42 51 56
82 74 67 43 41 48 44 73 57 43 39 35 25 21 17 16 20 29 28 42 37 28 22 20 19 20 21 22 23 23 24 24 24 24 25 27 30 30 27 30 35 41 48 58
67 54 43 44 39 46 68 48 37 25 22 45 20 19 20 27 31 34 25 21 19 17 18 21 23 24 27 29 29 28 28 29 29 31 33 32 28 29 34 32 36 48 52 54
29 29 25 28 30 33 27 24 24 26 22 22 22 24 26 23 20 17 16 17 19 21 24 25 26 29 33 34 34 34 34 34 36 38 39 46 41 40 37 32 44 54 52 52
31 28 25 24 24 21 22 20 18 18 21 23 21 21 19 17 17 17 18 19 18 20 27 30 34 38 38 37 38 39 41 42 44 43 45 44 45 43 37 37 56 60 63 67
9 9 9 10 12 14 15 16 22 27 23 20 22 22 21 20 17 16 15 14 16 21 30 33 36 36 33 32 33 35 42 44 47 48 47 47 46 46 41 53 64 70 76 74
9 9 11 15 19 20 22 25 26 20 22 19 19 19 17 18 17 16 15 16 18 22 23 23 23 25 25 26 26 30 40 45 49 51 50 50 53 49 46 68 78 81 78 74
10 10 12 15 23 24 26 22 18 20 19 16 16 18 17 18 18 18 18 17 17 17 18 19 21 24 23 23 23 24 31 46 53 54 53 52 48 38 60 85 87 84 82 77
13 13 18 24 28 30 25 17 19 18 16 17 17 18 18 18 19 21 21 20 21 22 22 22 23 24 25 25 25 26 30 44 58 58 55 47 38 57 84 92 89 81 70 57
12 16 24 29 26 28 23 17 16 19 21 19 20 21 21 20 20 20 20 21 22 22 22 23 24 26 27 28 30 34 38 47 59 58 50 44 60 86 91 92 82 74 60 42
12 18 22 25 25 25 24 21 17 20 24 22 23 22 21 21 20 20 19 19 22 24 24 25 26 28 30 32 34 42 50 54 58 51 52 71 90 95 95 94 82 64 48 42
15 20 24 23 23 21 18 20 21 23 26 26 23 23 21 20 20 21 23 26 28 28 27 29 31 33 33 34 44 53 55 58 54 62 83 95 98 98 97 87 70 56 44 47
19 19 20 22 24 19 19 21 24 24 26 25 25 25 26 29 31 34 35 33 32 31 31 33 35 37 41 56 59 58 56 56 74 93 100 100 99 93 88 79 70 49 51 40
20 20 19 18 20 18 19 20 22 24 27 30 30 30 29 31 33 33 31 35 39 46 50 48 46 50 65 58 56 53 56 79 98 100 100 100 97 81 73 72 58 52 46 19
22 22 19 19 19 16 17 19 19 19 18 17 21 24 27 30 33 44 44 52 52 50 49 49 60 61 59 58 52 69 94 100 100 100 100 98 92 80 80 75 56 53 27 9
6 6 6 9 9 7 11 12 13 17 20 19 20 22 28 33 33 37 41 44 46 47 55 60 64 68 62 52 63 90 100 99 98 100 100 98 92 84 84 70 65 36 13 10
10 9 8 8 9 10 12 10 12 12 10 12 14 15 16 20 26 33 37 44 53 66 75 74 60 50 62 88 89 96 100 98 98 100 100 100 98 99 79 75 48 21 10 14
11 11 10 10 10 10 8 8 8 9 9 11 12 18 23 30 34 41 52 66 79 81 79 62 64 92 96 94 90 100 100 94 99 100 100 100 100 100 88 64 32 11 12 16
11 10 9 8 11 8 6 7 7 9 12 17 20 26 36 53 72 71 74 75 75 75 70 72 92 90 86 99 100 100 100 100 100 100 100 100 100 86 72 48 15 10 16 16
7 7 7 6 7 7 9 13 15 17 22 29 40 53 62 66 66 62 59 57 66 76 84 89 86 94 78 91 100 100 100 100 100 100 100 100 92 78 60 21 11 14 18 20
6 6 7 8 12 14 17 23 36 42 47 51 51 53 57 63 63 58 72 78 78 81 90 91 88 95 100 100 100 100 100 100 100 100 100 100 92 70 23 12 13 19 19 27

GFSCGP_500_rhum_009.txt.gz
RH
96 100 98 100 96 98 94 72 71 74 38 72 89 56 24 59 78 66 50 35 28 31 28 28 38 47 48 50 52 52 70 70 71 74 36 23 21 17 19 26 28 25 24 24
92 94 93 99 99 95 86 87 86 64 32 53 87 100 50 60 65 43 46 38 39 33 32 34 42 50 76 75 74 77 69 69 54 35 23 20 20 21 22 23 22 23 26 28
100 94 99 96 99 94 87 76 98 86 35 45 98 94 33 29 30 28 31 32 32 37 47 55 56 77 80 68 52 38 27 32 26 24 23 21 20 20 19 18 18 19 26 32
94 97 94 95 98 95 93 75 92 88 94 83 43 92 85 26 16 30 34 30 32 37 43 48 56 58 58 36 25 21 21 21 23 20 20 20 21 23 23 23 22 23 24 26
93 82 85 94 98 60 91 82 55 84 81 96 99 64 77 67 35 30 32 31 32 38 39 43 56 45 28 24 19 19 20 21 21 22 22 25 31 33 32 31 30 30 29 30
99 77 54 82 50 51 44 52 53 51 88 86 72 99 96 96 69 34 26 22 22 25 32 49 40 28 20 19 20 24 25 25 26 27 29 33 36 37 36 39 41 39 39 40
84 87 76 72 68 37 65 92 88 78 95 76 90 65 47 96 78 39 19 17 18 20 43 30 22 18 20 22 27 30 31 31 32 33 34 37 40 41 44 51 49 45 40 32
84 63 51 52 63 96 39 97 84 92 91 74 86 70 61 65 30 20 17 24 33 29 20 17 19 22 23 29 32 29 25 26 33 36 38 41 44 46 47 48 47 41 35 30
98 100 78 26 37 44 97 43 63 68 52 26 30 67 81 31 21 22 21 19 18 17 20 22 25 27 29 29 25 21 20 23 26 33 38 42 45 48 49 49 47 42 35 34
85 95 59 24 26 27 32 45 28 26 24 26 82 87 83 59 18 17 17 17 18 17 15 18 24 25 23 21 19 19 19 22 24 27 27 29 36 46 52 53 47 43 39 54
29 33 34 27 23 49 22 21 21 29 47 31 30 71 71 23 21 19 17 16 14 14 15 17 19 20 20 19 20 21 22 24 25 24 25 27 30 47 56 51 49 45 59 83
12 12 10 23 8 10 12 16 17 20 26 23 22 28 25 19 18 17 16 16 16 16 16 17 18 19 20 21 22 22 23 24 27 28 30 32 41 47 53 50 52 65 87 86
12 10 9 10 11 13 23 26 28 26 20 20 19 27 17 16 16 17 17 18 19 20 20 21 21 22 22 23 23 24 25 27 30 33 34 43 51 56 55 55 70 92 90 87
13 12 11 13 94 46 28 27 26 17 16 19 15 17 16 15 16 17 19 20 20 20 21 21 21 23 25 25 26 26 29 34 36 39 53 57 60 57 57 80 98 97 93 83
9 11 12 15 18 27 24 27 22 14 17 17 19 21 22 22 20 20 19 20 21 21 22 24 28 32 32 30 30 34 36 41 45 62 62 60 58 66 88 100 100 95 92 81
11 12 14 18 28 26 23 24 23 18 16 17 20 22 26 24 23 24 24 24 27 32 39 41 40 36 34 36 39 44 47 55 69 63 63 59 70 100 100 100 100 95 90 83
22 14 14 18 22 22 18 22 25 26 26 27 26 28 23 23 23 26 27 32 37 40 40 38 40 51 60 60 57 55 68 70 65 62 59 72 97 100 100 96 100 98 82 84
24 15 16 20 24 21 22 23 24 24 26 29 26 28 27 25 30 32 34 32 36 38 47 58 63 61 60 59 63 75 67 68 66 66 86 100 100 100 93 98 95 90 93 89
18 18 20 18 19 20 20 18 23 25 29 22 25 27 27 26 27 32 23 31 42 45 41 41 47 55 58 69 67 72 71 64 66 91 100 100 100 100 100 100 96 100 100 100
25 23 21 21 19 16 16 18 18 17 20 9 17 18 19 22 24 31 23 26 24 27 34 43 48 56 67 74 77 67 68 97 100 100 100 100 100 100 100 100 100 100 100 99
8 6 6 7 6 6 6 7 8 10 13 12 12 13 12 14 19 14 15 21 29 36 40 50 68 82 85 77 75 83 98 91 78 96 92 99 100 100 100 100 100 100 100 100
11 11 10 10 10 9 10 9 9 9 8 8 8 10 7 8 10 14 20 30 49 69 68 70 69 65 71 80 90 92 76 78 100 100 100 100 100 100 100 100 100 100 100 78
10 11 10 11 11 10 8 7 6 6 6 7 6 8 9 12 18 25 36 55 68 69 64 57 55 77 80 83 90 93 100 100 100 100 100 100 100 100 100 100 100 98 88 68
10 10 10 9 8 7 5 6 5 5 6 8 10 14 20 30 41 49 51 52 56 51 53 67 76 79 84 88 90 99 90 100 100 100 100 100 100 100 100 100 100 88 70 29
12 11 9 7 7 6 6 6 6 10 12 17 29 41 45 49 44 41 43 44 50 65 73 72 78 84 86 89 86 78 88 97 100 100 100 100 100 100 100 100 88 42 18 15
13 10 7 6 6 8 9 10 14 24 41 45 40 33 28 28 34 44 48 65 68 66 67 76 80 85 92 91 96 100 100 100 100 100 100 100 100 100 88 40 16 16 18 18

GFSCGP_500_rhum_012.txt.gz
RH
96 98 98 97 92 92 94 92 96 92 56 44 88 83 40 7 24 52 45 59 13 17 25 28 30 31 34 41 37 31 49 62 62 56 34 15 18 17 17 18 20 22 24 23
94 95 92 90 95 96 98 96 89 80 56 35 81 97 14 14 24 23 18 14 15 13 17 25 27 30 32 53 53 54 46 33 22 20 17 18 18 18 21 24 27 30 32 31
88 91 96 95 91 90 98 96 86 96 23 38 91 100 99 25 25 62 23 22 17 15 21 26 33 40 40 46 47 39 43 20 18 19 20 19 20 23 25 28 33 35 38 39
98 89 83 89 82 96 98 78 100 95 80 61 84 95 95 76 33 18 18 19 16 14 15 25 35 36 46 60 58 28 19 19 20 21 22 23 25 25 30 31 32 37 32 38
100 70 72 96 99 98 85 100 81 95 99 98 84 91 83 85 67 24 37 39 21 15 14 17 22 31 55 52 31 17 20 25 26 26 28 29 31 30 30 33 37 40 42 44
94 79 100 95 94 54 45 35 50 94 84 99 93 95 92 93 98 98 81 79 41 22 15 14 13 23 40 32 17 19 26 30 28 30 32 32 29 30 34 36 38 43 44 48
71 72 70 50 53 55 30 39 85 87 87 64 95 97 81 82 79 98 79 60 34 20 13 15 20 24 17 20 20 24 29 26 23 27 27 24 26 27 28 27 26 27 29 35
100 97 51 36 34 84 83 50 99 88 90 87 94 76 99 89 66 46 31 40 18 18 26 27 17 17 20 22 24 26 22 20 21 20 21 23 26 26 25 26 27 31 37 42
58 82 98 70 24 36 77 86 86 93 98 89 66 70 69 47 80 91 57 19 20 18 16 18 18 18 22 25 24 22 20 18 19 21 22 24 25 26 27 27 29 36 46 50
96 89 95 88 33 16 27 56 35 30 23 18 18 72 92 92 64 50 18 16 16 18 18 15 14 15 17 18 18 18 19 20 22 23 24 26 28 30 30 32 40 50 53 54
63 98 99 21 20 21 24 25 20 24 38 24 20 77 97 78 63 21 20 17 16 15 15 15 15 16 17 19 20 22 22 22 24 26 27 28 30 33 34 47 56 60 58 55
19 21 27 19 19 16 18 37 32 16 16 16 20 26 38 57 34 19 18 17 16 16 16 16 18 20 21 21 20 22 25 27 31 31 32 33 35 43 55 63 59 58 58 68
19 18 12 28 54 11 10 13 25 50 20 19 22 21 20 22 20 17 16 17 17 17 18 18 19 19 20 24 31 36 39 37 35 36 55 59 52 85 74 72 59 60 74 78
11 12 12 11 29 97 82 19 26 29 21 24 18 20 28 20 13 14 16 20 20 20 20 22 22 22 27 36 40 40 38 44 63 66 67 63 67 82 66 60 60 90 84 78
15 14 16 15 49 60 100 61 30 27 24 19 18 19 26 56 40 19 20 17 23 28 28 31 37 36 32 36 38 51 59 62 63 62 72 83 86 76 67 61 87 89 99 97
7 11 11 10 15 15 18 19 21 25 25 20 16 18 34 18 18 21 23 28 26 30 38 42 44 44 46 51 49 54 53 52 60 76 79 73 72 62 85 100 95 90 96 97
19 13 12 12 13 16 19 26 26 24 28 27 26 26 31 28 20 18 28 30 24 30 31 35 44 51 53 40 35 44 50 51 70 74 77 71 76 96 97 98 100 99 100 100
26 24 22 16 14 16 23 22 27 25 25 28 29 31 27 23 24 32 23 17 24 23 31 30 27 26 26 35 39 41 61 70 79 83 78 90 90 92 100 100 100 100 99 95
34 29 27 18 15 22 20 22 26 28 31 25 24 29 28 19 22 26 13 18 20 18 15 14 17 24 34 48 61 73 86 90 76 78 82 85 97 88 81 97 100 100 100 100
30 25 20 21 23 23 22 21 23 21 23 10 19 17 15 13 16 16 15 13 12 13 16 20 30 53 68 77 73 66 66 78 85 80 89 100 95 100 100 100 100 100 100 100
13 18 21 22 18 14 9 9 9 10 12 11 10 9 9 9 10 10 8 8 14 20 24 38 56 64 63 59 57 73 79 86 91 100 100 94 96 90 100 100 100 100 100 100
12 12 12 11 11 10 10 10 10 10 9 8 6 6 6 6 8 10 14 18 23 47 50 55 51 55 57 66 78 80 86 92 97 96 96 92 92 100 100 100 100 100 100 100
10 11 11 12 11 9 8 8 7 6 5 5 6 6 7 9 12 16 28 42 45 46 40 45 49 61 76 80 83 88 85 88 98 100 100 100 100 100 100 100 100 100 100 97
12 11 11 11 11 10 8 6 6 5 6 5 7 10 11 19 40 45 42 29 27 41 48 51 68 74 74 78 78 75 75 78 100 100 100 100 100 100 100 100 100 96 77 39
13 12 12 11 13 11 10 6 5 6 6 8 12 16 36 47 43 32 24 35 55 59 64 64 58 57 60 63 64 65 69 80 100 100 100 100 100 100 100 100 97 73 24 13
13 12 14 14 11 14 10 7 6 6 8 17 32 42 43 38 30 26 38 58 64 65 65 61 60 61 62 58 48 30 50 77 100 100 100 100 100 100 99 77 35 16 14 19

GFSCGP_500_rhum_015.txt.gz
RH
77 82 86 82 87 98 95 95 80 67 37 47 62 80 85 56 12 62 71 87 62 15 19 33 11 13 12 27 42 26 27 25 25 26 19 17 18 18 19 21 22 24 28 32
73 82 72 80 92 70 100 99 94 96 84 49 82 73 90 19 16 21 18 38 22 28 20 13 9 11 13 15 39 54 43 24 19 18 18 18 20 21 21 22 23 25 30 32
78 84 92 88 85 93 96 89 95 91 79 57 76 94 94 44 20 24 22 26 16 13 16 19 19 12 9 14 37 63 48 23 17 20 20 21 21 20 24 27 29 31 32 33
92 85 93 93 85 100 85 98 93 83 93 25 70 94 78 98 56 82 32 23 24 16 17 20 36 10 10 13 38 47 33 25 22 24 22 19 18 20 23 25 26 24 22 22
95 99 100 97 80 66 91 88 93 70 91 85 98 94 80 86 70 84 57 42 26 11 16 19 24 15 17 16 37 40 20 20 26 26 23 23 23 22 22 22 21 22 23 24
85 65 53 66 76 94 48 47 66 90 76 99 95 83 87 80 88 70 91 64 50 31 25 20 17 16 24 30 36 34 25 21 26 22 24 25 26 25 23 22 22 24 25 26
61 68 97 98 73 55 39 31 39 38 62 62 71 78 87 95 87 91 54 53 57 36 19 15 23 36 26 19 26 23 23 24 26 26 27 23 21 22 23 24 25 26 28 30
74 90 77 81 50 80 70 37 76 90 82 43 58 87 95 86 72 44 46 68 68 24 20 28 36 21 19 21 22 20 20 22 22 20 20 21 23 24 25 27 29 31 33 34
55 92 85 84 92 82 77 86 78 100 77 81 95 77 99 79 64 28 64 40 17 16 36 46 37 15 15 15 16 16 16 18 20 22 23 23 25 30 32 34 38 46 57 77
67 84 99 98 70 55 51 46 71 72 61 18 19 29 30 83 72 87 48 19 18 18 18 18 16 16 16 18 19 19 19 20 21 24 32 39 39 38 39 51 67 84 72 86
90 74 91 89 90 56 35 24 34 44 29 20 18 66 67 70 58 41 44 20 18 18 17 17 17 17 18 20 21 21 20 22 33 43 43 41 42 54 80 79 76 78 82 76
82 62 34 73 34 33 27 21 32 40 31 20 12 17 28 74 75 72 53 23 18 17 17 16 16 16 18 20 23 31 31 31 32 38 46 55 73 80 68 61 71 80 79 68
45 30 24 33 38 24 25 20 21 11 10 19 15 18 26 27 30 26 24 20 18 17 16 16 17 16 16 20 27 40 52 50 60 68 58 62 70 68 59 66 69 72 64 78
18 18 19 20 16 16 20 69 23 16 15 18 22 22 28 24 20 17 16 20 23 19 19 17 16 14 12 23 26 41 55 69 74 80 56 50 57 46 58 76 76 67 75 74
16 11 10 10 11 14 17 40 54 30 25 22 27 20 22 21 24 18 13 12 14 24 29 25 22 35 38 42 63 75 92 85 75 66 44 43 46 62 80 70 70 76 78 64
11 10 10 11 13 13 13 49 26 30 26 24 25 22 19 18 17 17 16 18 25 22 31 35 33 29 35 72 87 83 91 61 55 47 62 64 58 67 73 84 89 88 73 96
7 6 6 10 11 11 11 12 19 26 36 42 32 31 33 25 18 15 18 27 29 29 30 34 39 38 27 20 38 34 37 50 69 77 70 64 74 79 88 96 76 99 100 97
31 34 21 20 13 12 13 14 21 28 32 28 25 22 23 24 22 25 26 20 19 19 18 17 17 20 16 20 30 43 57 66 63 59 62 76 82 87 85 93 100 100 100 100
88 61 51 39 21 21 14 16 24 30 29 28 28 25 28 32 26 22 22 22 18 13 10 8 8 13 32 65 78 73 67 60 60 66 72 72 71 83 100 100 100 100 100 100
33 33 31 26 25 22 15 19 21 25 23 22 26 27 24 22 23 20 17 14 10 9 10 11 23 43 46 44 40 47 48 52 67 70 67 69 81 90 92 100 100 99 98 86
23 24 24 21 18 17 18 23 24 20 14 11 12 12 12 10 9 8 8 6 6 10 27 43 45 42 38 38 44 53 67 71 79 74 74 78 94 92 100 100 100 100 100 100
11 11 12 12 11 10 10 10 11 12 10 10 8 7 6 6 6 6 7 10 17 38 45 38 31 38 55 59 71 83 85 80 68 65 68 74 79 97 100 100 100 100 100 100
11 11 11 12 13 11 9 9 8 8 7 7 6 5 5 5 6 8 14 31 47 45 37 27 37 62 70 76 74 69 66 69 65 59 45 42 70 81 100 100 100 100 100 98
12 13 12 14 13 11 9 8 8 8 10 9 7 6 6 7 11 21 42 48 42 39 30 30 51 71 73 73 70 68 66 57 32 10 6 6 14 51 99 100 100 100 78 53
18 16 17 15 14 10 10 9 9 9 10 9 8 8 9 16 29 41 44 44 38 35 38 52 68 69 64 62 63 62 37 11 5 4 4 5 9 44 98 100 80 48 47 50
16 15 14 12 14 14 14 15 15 15 14 12 11 12 20 35 44 48 46 45 52 58 74 74 66 63 61 64 54 21 6 5 4 4 5 6 9 23 82 60 58 69 77 69